STARLINK-34127, 63810

Orbit data source: Space-Track

STARLINK-34127, 63810 is a payload satellite owned by SpaceX/Seattle (US) in LEO that was launched on Sun, 04 May 2025 UTC via an FALCON 9 launch vehicle from the Air Force Eastern Test Range (AFETR). Payload-class satellites include a variety of spacecraft equipped with specific instruments for various scientific and technological missions. These include communications satellites like Starlink; space stations such as the ISS; scientific satellites like the Hubble; Earth observation satellites from companies like Planet Labs, Umbra, and HawkEye 360; GPS; miniature CubeSats for education and research; and military/defense satellites.

Loading next visibility...
Identifier
63810, 2025-092G
Orbit
LEO
Country
Flag of USUS
Related business
Manufacturer
SpaceX/Seattle
Mission
Operational Commercial Communications
Bus & Motor
STARLINK V2MO, Unknown motor
Mass
575 kg wet, ~530 kg dry
Launch date (UTC)
2025-05-04 (9 months ago)
Launch vehicle
FALCON 9
Launch site
Air Force Eastern Test Range (AFETR)
Object type
Payload
Rocket body
Debris
Shape & HBR
Box + 2 Pan, 17.7 m
Radar Cross Section
36.964 m², Large (>1 m²)

Expand to show TLE details & history
Last TLE update: 20 hours ago

TLE from 20 hours ago
0 STARLINK-34127
1 63810U 25092G   26037.22310265  .00048326  00000-0  17540-2 0  9997
2 63810  43.0038 350.1335 0002036 271.3282  88.7336 15.27582731 43805
Epoch: 2026-02-06T05:21Z
TLE epoch observation values (Epoch: 2026-02-06T05:21:16.068Z)
Latitude
-0.00007°
Longitude
133.45241°
Altitude
482.786 km
Speed
7.626 km/s
True Right ascension
23h 20m 32s
True Declination
0° 00' 00"
Sunlit
Object was in daylight at epoch
Visualization orbit readout
Latitude
Unknown
Longitude
Unknown
Altitude
Unknown
Speed
Unknown
Apparent Right ascension
Unknown
Apparent Declination
Unknown
Sunlit
N/A
Visualization observer readout
Local Sidereal Time
03:13:36
Azimuth
Unknown
Elevation
Unknown
Doppler factor
Unknown
Orbital elements
Apogee altitude
486.383 km
Perigee altitude
483.588 km
Semi-major axis
6,863.122 km
Eccentricity
0.0002
Inclination
43.0038°
RAAN
350.1335°
Arg. of periapsis
271.3282°
True anomaly
88.75693°
Mean anomaly
88.7336°
Eccentric anomaly
88.74526°
Mean motion
3.81734 °/min
Orbital period
94.31 mins
BSTAR
0.001754
Loading maneuver chart data...
Computing Atmospheric mass density...
Loading historical data...
Loading historical data...
Loading historical data...
Loading historical data...
Loading historical data...
Loading historical data...
Loading historical data...

Documentation

Showing up to 5 results
|